Weather History for Colby, KS

Change the Weather History Date:

Friday, January 17, 2014

  Actual Average (KGLD) Record (KGLD)
Temperature  
Mean Temperature 32 °F 30 °F  
Max Temperature 51 °F 42 °F 71 °F (1923)
Min Temperature 14 °F 17 °F -20 °F (1930)
Degree Days  
Heating Degree Days 32 35  
Month to date heating degree days 597  
Since 1 July heating degree days 3004  
Cooling Degree Days 0 0  
Month to date cooling degree days 0  
Year to date cooling degree days 0  
Moisture  
Dew Point 18 °F    
Average Humidity 61    
Maximum Humidity 93    
Minimum Humidity 35    
Precipitation  
Precipitation 0.00 in 0.01 in 0.47 in (1955)
Month to date precipitation 0.19  
Year to date precipitation 0.19  
Snow  
Snow 0.00 in 0.20 in - ()
Month to date snowfall 3.0  
Since 1 July snowfall 15.7  
Snow Depth -    
Sea Level Pressure  
Sea Level Pressure 30.11 in    
Wind  
Wind Speed 10 mph (West)    
Max Wind Speed 18 mph    
Max Gust Speed 25 mph    
Visibility 10 miles    
Events      
T = Trace of Precipitation, MM = Missing Value Source: NWS Daily Summary

Daily Weather History Graph

Daily Weather History Graph

Search for Another Location

Airport:

Trip Planner

Search our weather history database for the weather conditions in past years. The results will help you decide how hot, cold, wet, or windy it might be!

Date:

Astronomy

Jan. 17, 2014 Rise Set
Actual Time 8:01 AM CST 5:47 PM CST
Civil Twilight 7:32 AM CST 6:16 PM CST
Nautical Twilight 6:59 AM CST 6:49 PM CST
Astronomical Twilight 6:27 AM CST 7:21 PM CST
Moon 7:34 PM CST (1/17) 8:31 AM CST (1/17)
Length of Visible Light 10h 44m
Length of Day
9h 45m
Full, 98% of the Moon is Illuminated
Jan 17
Full
Jan 23
Last Quarter
Jan 30
New
Feb 6
First Quarter
Feb 14
Full

Hourly Weather History & Observations

Time (CST) Temp. Windchill Dew Point Humidity Pressure Visibility Wind Dir Wind Speed Gust Speed Precip Events Conditions
12:15 AM 26.6 °F 17.5 °F 14.0 °F 59% 30.24 in 10.0 mi WNW 9.2 mph - N/A   Clear
12:35 AM 23.0 °F 13.1 °F 12.2 °F 63% 30.24 in 10.0 mi NW 9.2 mph - N/A   Clear
12:55 AM 21.2 °F 10.1 °F 12.2 °F 68% 30.23 in 10.0 mi WNW 10.4 mph - N/A   Clear
1:15 AM 19.4 °F 7.2 °F 12.2 °F 74% 30.21 in 10.0 mi WNW 11.5 mph - N/A   Clear
1:35 AM 17.6 °F 6.4 °F 10.4 °F 73% 30.22 in - West 9.2 mph - N/A   Clear
1:55 AM 15.8 °F 2.7 °F 10.4 °F 79% 30.22 in 10.0 mi WNW 11.5 mph - N/A   Clear
2:15 AM 15.8 °F 4.2 °F 10.4 °F 79% 30.22 in 10.0 mi NW 9.2 mph - N/A   Clear
2:35 AM 14.0 °F 2.0 °F 10.4 °F 86% 30.22 in 10.0 mi WNW 9.2 mph - N/A   Clear
2:55 AM 17.6 °F 6.4 °F 12.2 °F 79% 30.22 in - WNW 9.2 mph - N/A   Clear
3:15 AM 19.4 °F 7.9 °F 14.0 °F 80% 30.22 in - WNW 10.4 mph - N/A   Clear
3:35 AM 21.2 °F 10.1 °F 14.0 °F 74% 30.21 in - NW 10.4 mph - N/A   Clear
3:55 AM 19.4 °F 7.9 °F 14.0 °F 80% 30.21 in - WNW 10.4 mph - N/A   Unknown
4:15 AM 19.4 °F 8.6 °F 14.0 °F 80% 30.21 in 10.0 mi NW 9.2 mph - N/A   Clear
4:35 AM 19.4 °F 9.5 °F 14.0 °F 80% 30.21 in 10.0 mi NW 8.1 mph - N/A   Clear
4:55 AM 17.6 °F 6.4 °F 14.0 °F 86% 30.20 in 10.0 mi NW 9.2 mph - N/A   Clear
5:15 AM 17.6 °F 6.4 °F 14.0 °F 86% 30.19 in 10.0 mi NW 9.2 mph - N/A   Scattered Clouds
5:35 AM 17.6 °F 7.3 °F 14.0 °F 86% 30.19 in 10.0 mi NW 8.1 mph - N/A   Scattered Clouds
5:55 AM 17.6 °F 7.3 °F 14.0 °F 86% 30.19 in 10.0 mi NW 8.1 mph - N/A   Clear
6:15 AM 17.6 °F 7.3 °F 14.0 °F 86% 30.19 in 10.0 mi West 8.1 mph - N/A   Clear
6:35 AM 19.4 °F 8.6 °F 14.0 °F 80% 30.20 in 10.0 mi West 9.2 mph - N/A   Clear
6:55 AM 21.2 °F 10.1 °F 15.8 °F 80% 30.21 in 10.0 mi West 10.4 mph - N/A   Clear
7:15 AM 19.4 °F 9.5 °F 14.0 °F 80% 30.20 in 10.0 mi West 8.1 mph - N/A   Clear
7:35 AM 17.6 °F 7.3 °F 14.0 °F 86% 30.21 in 10.0 mi West 8.1 mph - N/A   Clear
7:55 AM 17.6 °F 7.3 °F 14.0 °F 86% 30.20 in 10.0 mi WSW 8.1 mph - N/A   Clear
8:15 AM 15.8 °F 7.2 °F 14.0 °F 93% 30.19 in 10.0 mi WSW 5.8 mph - N/A   Clear
8:35 AM 19.4 °F 12.8 °F 14.0 °F 80% 30.20 in 10.0 mi West 4.6 mph - N/A   Clear
8:55 AM 21.2 °F 14.9 °F 17.6 °F 86% 30.20 in 10.0 mi WSW 4.6 mph - N/A   Clear
9:15 AM 26.6 °F 21.2 °F 19.4 °F 74% 30.20 in 10.0 mi WSW 4.6 mph - N/A   Clear
9:35 AM 30.2 °F 24.3 °F 19.4 °F 64% 30.19 in 10.0 mi SW 5.8 mph - N/A   Clear
9:55 AM 32.0 °F 25.6 °F 19.4 °F 60% 30.19 in 10.0 mi WSW 6.9 mph - N/A   Clear
10:15 AM 33.8 °F 26.4 °F 19.4 °F 56% 30.18 in 10.0 mi WSW 9.2 mph - N/A   Clear
10:35 AM 35.6 °F 28.0 °F 19.4 °F 52% 30.18 in 10.0 mi SW 10.4 mph - N/A   Clear
10:55 AM 37.4 °F 29.8 °F 19.4 °F 48% 30.18 in 10.0 mi SW 11.5 mph - N/A   Clear
11:15 AM 37.4 °F 29.3 °F 19.4 °F 48% 30.17 in 10.0 mi SW 12.7 mph - N/A   Clear
11:35 AM 39.2 °F 31.6 °F 19.4 °F 45% 30.14 in 10.0 mi SSW 12.7 mph 18.4 mph N/A   Clear
11:55 AM 41.0 °F 33.5 °F 21.2 °F 45% 30.13 in 10.0 mi WSW 13.8 mph - N/A   Clear
12:15 PM 42.8 °F 37.5 °F 23.0 °F 46% 30.12 in 10.0 mi WSW 9.2 mph - N/A   Clear
12:35 PM 44.6 °F 38.4 °F 23.0 °F 43% 30.09 in 10.0 mi West 12.7 mph - N/A   Clear
12:55 PM 46.4 °F 41.1 °F 24.8 °F 43% 30.08 in 10.0 mi West 11.5 mph 23.0 mph N/A   Mostly Cloudy
1:15 PM 48.2 °F - 24.8 °F 40% 30.07 in 10.0 mi WNW 13.8 mph 18.4 mph N/A   Overcast
1:35 PM 46.4 °F 39.5 °F 23.0 °F 40% 30.05 in 10.0 mi WNW 17.3 mph - N/A   Overcast
1:55 PM 50.0 °F - 24.8 °F 37% 30.04 in 10.0 mi WNW 13.8 mph 18.4 mph N/A   Overcast
2:15 PM 50.0 °F - 24.8 °F 37% 30.04 in 10.0 mi WNW 18.4 mph 24.2 mph N/A   Overcast
2:35 PM 50.0 °F - 23.0 °F 35% 30.04 in 10.0 mi NW 11.5 mph 20.7 mph N/A   Overcast
2:55 PM 50.0 °F - 24.8 °F 37% 30.03 in 10.0 mi NW 11.5 mph - N/A   Overcast
3:15 PM 50.0 °F - 23.0 °F 35% 30.03 in 10.0 mi NW 15.0 mph 25.3 mph N/A   Overcast
3:35 PM 51.8 °F - 24.8 °F 35% 30.02 in 10.0 mi NW 15.0 mph - N/A   Scattered Clouds
3:55 PM 51.8 °F - 24.8 °F 35% 30.02 in 10.0 mi WNW 13.8 mph - N/A   Clear
4:15 PM 51.8 °F - 24.8 °F 35% 30.02 in 10.0 mi WNW 10.4 mph - N/A   Clear
4:35 PM 51.8 °F - 24.8 °F 35% 30.02 in 10.0 mi WNW 12.7 mph - N/A   Clear
4:55 PM 51.8 °F - 24.8 °F 35% 30.01 in 10.0 mi WNW 11.5 mph - N/A   Clear
5:15 PM 50.0 °F - 23.0 °F 35% 30.01 in 10.0 mi WNW 12.7 mph - N/A   Clear
5:35 PM 46.4 °F 42.4 °F 23.0 °F 40% 30.01 in 10.0 mi WNW 8.1 mph - N/A   Clear
5:55 PM 42.8 °F 38.6 °F 21.2 °F 42% 30.00 in 10.0 mi West 6.9 mph - N/A   Clear
6:15 PM 35.6 °F 28.0 °F 17.6 °F 48% 30.00 in 10.0 mi West 10.4 mph - N/A   Clear
6:35 PM 35.6 °F 27.5 °F 19.4 °F 52% 29.99 in 10.0 mi West 11.5 mph - N/A   Clear
6:55 PM 32.0 °F 23.0 °F 17.6 °F 55% 29.99 in 10.0 mi West 11.5 mph - N/A   Clear
7:15 PM 32.0 °F 24.8 °F 17.6 °F 55% 29.99 in 10.0 mi WSW 8.1 mph - N/A   Clear
7:35 PM 33.8 °F 27.7 °F 19.4 °F 56% 29.99 in 10.0 mi West 6.9 mph - N/A   Clear
7:55 PM 33.8 °F 27.0 °F 19.4 °F 56% 29.99 in 10.0 mi West 8.1 mph - N/A   Clear
8:15 PM 32.0 °F 23.6 °F 17.6 °F 55% 29.99 in 10.0 mi West 10.4 mph - N/A   Clear
8:35 PM 30.2 °F 22.6 °F 17.6 °F 60% 29.99 in 10.0 mi West 8.1 mph - N/A   Clear
8:55 PM 30.2 °F 22.6 °F 17.6 °F 60% 29.99 in 10.0 mi West 8.1 mph - N/A   Clear
9:15 PM 30.2 °F 21.9 °F 17.6 °F 60% 29.98 in 10.0 mi West 9.2 mph - N/A   Clear
9:35 PM 32.0 °F 23.0 °F 19.4 °F 60% 29.98 in 10.0 mi West 11.5 mph - N/A   Clear
9:55 PM 32.0 °F 23.6 °F 19.4 °F 60% 29.99 in 10.0 mi West 10.4 mph - N/A   Clear
10:15 PM 30.2 °F 20.8 °F 17.6 °F 60% 29.99 in 10.0 mi West 11.5 mph - N/A   Clear
10:35 PM 32.0 °F 23.0 °F 19.4 °F 60% 29.98 in 10.0 mi West 11.5 mph - N/A   Clear
10:55 PM 32.0 °F 23.0 °F 19.4 °F 60% 29.98 in 10.0 mi West 11.5 mph - N/A   Clear
11:15 PM 32.0 °F 22.5 °F 19.4 °F 60% 29.98 in 10.0 mi West 12.7 mph - N/A   Clear
11:35 PM 32.0 °F 21.6 °F 19.4 °F 60% 29.97 in 10.0 mi West 15.0 mph - N/A   Clear
11:55 PM 32.0 °F 22.1 °F 19.4 °F 60% 29.98 in 10.0 mi West 13.8 mph - N/A   Clear